Вернуться в каталог

STARLINK-36119

АктивенСвязьVLEO
NORAD 67619·PAYLOAD·🇺🇸 United States

Запущен Jan 30, 2026 с Cape Canaveral Space Force Station

Loading…

Ближайшие Пролёты (ближайшие 24 часа)

TLE

СвежийSource: CelesTrak SupGP

Эпоха: Sep 14, 2026, 21:39 UTC

1 67619C 26020C   26257.90256944 -.00037847  00000+0 -13709-2 0  2579
2 67619  42.9996 151.4349 0001344 264.3625 278.9721 15.27594944    14

Отслеживайте STARLINK-36119 в реальном времени с AllMySat

Download on the App Store